Temp_Advection
nan nan nan nan nan nan nan nan nan nan nan nan nan nan nan nan nan nan nan nan nan nan nan nan nan nan nan nan nan nan nan nan nan nan nan nan nan nan nan nan nan nan nan nan
nan -0 -1 -0 -0 0 0 0 -0 -0 0 0 -0 0 -0 -0 -1 -2 -1 -1 0 -0 -1 -0 1 1 1 1 1 1 1 1 0 -0 0 0 1 1 1 0 0 0 0 nan
nan -0 0 -0 -0 0 0 -0 -0 -0 -0 0 0 -0 -0 -0 -0 -2 -1 0 -1 -1 -1 -0 0 1 2 1 1 1 1 1 1 1 1 1 1 0 -0 -0 -0 0 0 nan
nan -1 0 0 0 -0 -0 -0 -0 -0 0 0 -0 0 -0 -0 1 -5 -10 -6 -5 -4 -2 -1 -0 2 2 2 1 1 1 1 1 1 1 0 0 -0 -0 0 1 1 0 nan
nan -0 0 -0 -0 -0 -0 -0 0 0 0 -0 0 0 -0 0 -3 -3 -3 -5 -5 -3 -2 -2 -1 0 1 1 1 2 2 2 1 1 1 1 1 0 0 1 1 0 0 nan
nan -0 0 -0 0 -0 0 -0 -1 -0 0 -0 0 0 0 -1 -1 -1 -1 -2 -3 -3 -1 -1 -1 0 0 1 1 1 1 1 1 1 1 1 1 0 0 0 0 0 0 nan
nan 0 -0 0 0 -0 0 -0 0 0 -0 -0 0 0 -1 -1 -0 -0 -1 -2 -3 -2 -2 -2 -1 -1 -0 0 0 1 1 1 1 1 1 1 1 0 0 0 0 0 0 nan
nan -0 -0 -0 0 0 0 0 -0 -0 -0 0 -0 1 -0 -1 -0 -1 -2 -2 -3 -3 -3 -2 -1 -1 -0 -0 0 1 -0 0 1 1 1 1 0 0 0 0 0 -0 -0 nan
nan -0 -0 0 -0 -0 -0 -0 -0 0 0 -0 0 -1 -0 -1 -1 -1 -2 -2 -2 -2 -1 -1 -1 -1 -1 -0 -0 -0 0 1 0 -0 0 0 0 0 0 0 0 0 0 nan
nan -1 -0 -0 -0 -0 0 0 0 0 0 -0 0 -1 -0 -1 -1 -1 -1 -1 -1 -1 -1 -1 -1 -1 -1 -1 -0 0 0 0 0 1 1 0 0 0 0 0 0 0 0 nan
nan -0 -1 -0 0 0 -0 0 0 0 0 -1 2 1 -2 -1 -1 -1 -1 -1 -1 -1 -1 -1 -1 -1 -1 -1 -1 -1 -1 -0 0 0 0 1 1 0 0 0 0 0 0 nan
nan -0 -1 -0 -1 0 -1 -1 -1 -0 0 0 0 1 -1 -0 -1 -1 -1 -1 -1 -1 -0 -0 -0 -1 -1 -1 -1 -1 -1 -1 -1 -1 -0 -0 0 0 1 1 1 1 1 nan
nan 0 -0 -2 0 -1 -1 -1 -1 -1 -1 -0 1 -0 -1 -1 -0 -1 -1 -1 -1 -1 -1 -1 -1 -1 -1 -1 -1 -1 -1 -1 -1 -1 -1 -1 -0 -1 -0 -0 -0 1 1 nan
nan 0 0 -0 -1 -0 -0 -1 -1 -0 0 -0 0 0 -1 -1 -0 -0 -1 -0 -0 -0 -1 -1 -1 -1 -1 -1 -1 -1 -1 -1 -1 -1 -1 -1 -1 -1 -1 -1 -1 -1 -0 nan
nan 0 -0 -0 -0 0 -2 -1 -0 -1 -1 0 -1 -0 -0 -0 -0 -0 -1 -1 -0 -0 -1 -1 -1 -1 -1 -1 -1 -1 -1 -1 -1 -1 -1 -1 -1 -1 -1 -0 -0 -0 -0 nan
nan -0 -1 -1 -0 0 -1 -0 -0 -1 -0 -0 -0 -0 -0 -0 -1 -0 -1 -1 -1 -1 -1 -1 -1 -1 -1 -1 -1 -1 -1 -1 -1 -1 -1 -1 -1 -1 -0 -0 -0 -0 -0 nan
nan 0 -0 -1 0 -0 -0 -0 -0 -0 -0 -0 -0 -0 -0 -0 -1 -0 -1 -0 -0 -1 -1 -0 -0 -0 -0 -0 -0 -0 -1 -1 -1 -1 -1 -1 -1 -1 -1 -0 -0 -0 -0 nan
nan 0 0 0 -0 1 -1 -0 -0 -0 -0 -0 -0 -0 -0 -0 -0 -0 0 0 -0 -0 -0 -0 -0 -0 -0 -0 -0 -0 -0 -0 -0 -0 -1 -1 -1 -1 -1 -1 -1 -0 -0 nan
nan 0 -0 -0 -0 -0 0 -0 -0 -0 0 -0 -0 -0 -0 -1 -1 0 -0 0 -0 -0 -0 -0 -0 -0 -0 -0 -0 -0 -0 -0 -0 -0 -0 -0 -1 -1 -0 -1 -1 -1 -1 nan
nan -1 -0 -0 0 1 0 -0 -0 -0 0 -0 -0 0 -0 -1 -0 -0 -2 -0 -0 -0 -0 -0 -0 -0 -0 -0 -0 -0 -0 -0 -1 -1 -1 -0 -0 -1 -1 -0 -0 -0 -0 nan
nan -1 -0 -0 0 0 -0 -1 0 -0 0 0 -0 0 0 0 -0 -0 -1 -0 -0 -0 -0 -0 -1 -1 -1 -1 -1 -1 -0 -1 -1 -1 -1 -1 -0 -0 -0 -0 -0 -0 -0 nan
nan -0 -0 -0 0 -0 0 -0 0 0 -0 -0 -0 -0 -0 0 -0 -0 -1 -1 -1 -1 -1 -0 -1 -1 -1 -0 -1 -1 -1 -0 -1 -1 -1 -1 -1 -0 -0 -1 -1 -0 -0 nan
nan -0 -0 0 0 -0 -0 -0 -0 -0 -0 -0 -0 -0 -0 -0 -0 -1 -1 -1 -1 -1 -1 -1 -1 -1 -1 -0 -0 -1 -1 -1 -1 -1 -1 -1 -1 -0 -0 -1 -1 -0 -0 nan
nan -0 -0 -0 -0 -0 -0 0 0 0 0 0 0 -0 -0 -0 -1 -0 -1 -1 -1 -1 -1 -1 -1 -1 -1 -1 -0 -0 -0 -0 -1 -1 -1 -1 -1 -0 -0 -1 -1 -1 -0 nan
nan -0 -0 -0 -0 -1 -0 0 0 0 -0 -0 -0 -0 -0 -0 -1 -0 -1 -1 -1 -1 -0 -0 -0 -1 -1 -1 -1 -1 -0 -0 -0 -1 -1 -1 -1 -1 -0 -0 -0 -0 -0 nan
nan nan nan nan nan nan nan nan nan nan nan nan nan nan nan nan nan nan nan nan nan nan nan nan nan nan nan nan nan nan nan nan nan nan nan nan nan nan nan nan nan nan nan nan
Wind_Speed
4 3 10 12 11 3 2 4 5 5 4 5 9 13 15 16 15 19 30 34 37 36 35 32 29 30 32 32 31 32 32 30 30 32 32 30 28 25 23 22 20 20 19 19
1 9 12 7 7 7 7 7 9 9 8 7 9 12 11 9 9 24 29 38 37 35 32 31 34 33 34 34 35 34 33 32 32 33 32 29 27 26 23 22 22 21 20 20
7 6 3 8 6 6 10 7 6 10 5 4 5 8 7 6 5 20 31 33 31 29 28 22 27 35 36 37 37 35 34 32 31 31 32 30 28 26 27 26 24 23 23 23
7 11 14 6 4 9 8 10 11 7 2 5 2 6 5 7 8 20 36 31 25 22 13 15 19 30 36 37 35 33 33 32 30 30 33 33 33 32 30 26 24 24 25 25
8 3 4 7 11 9 9 8 7 4 4 2 4 2 7 4 10 21 25 34 36 29 23 18 7 14 27 30 29 30 30 30 29 30 31 32 32 30 28 26 26 25 26 26
11 6 3 6 2 6 2 3 6 4 3 4 8 7 3 5 8 14 24 30 35 36 29 21 14 6 8 16 21 24 25 27 26 27 28 30 30 29 29 28 28 27 27 28
5 5 4 8 5 1 3 5 2 3 0 7 1 5 4 7 11 12 15 28 33 38 37 33 25 16 9 3 9 15 18 21 23 24 26 27 28 28 28 28 27 28 29 31
3 7 3 1 9 6 6 7 5 6 4 4 4 6 4 9 13 19 27 28 34 39 37 36 32 25 16 6 4 10 13 15 19 21 22 24 24 26 27 27 27 26 28 29
5 5 6 3 4 7 2 5 8 4 2 1 4 4 6 10 15 25 29 32 34 36 37 33 30 29 25 18 11 2 9 13 17 17 18 21 22 24 26 27 27 26 25 26
2 8 5 6 2 1 5 2 1 2 5 7 6 6 3 13 16 17 22 28 30 33 35 33 31 28 25 23 20 14 8 2 10 17 20 21 21 22 24 25 25 24 23 24
5 4 5 4 4 6 3 4 6 3 4 13 14 3 6 8 11 12 18 22 25 28 33 31 29 28 26 22 22 19 15 10 3 2 10 17 20 20 21 21 23 23 23 25
4 4 8 6 13 3 9 9 8 4 9 4 7 4 6 9 12 15 16 18 20 22 26 28 28 27 27 27 24 22 19 14 12 8 4 2 4 9 14 18 21 23 24 25
4 3 5 14 0 5 8 6 5 5 6 6 7 2 9 13 12 15 16 18 20 23 25 28 28 29 28 27 26 23 20 18 15 13 10 9 9 9 8 8 10 18 22 24
8 3 5 7 8 8 6 6 8 3 4 7 1 4 10 11 10 13 15 16 18 22 26 28 28 27 25 24 24 24 23 20 18 15 13 12 11 12 14 14 14 13 13 17
2 4 2 10 8 3 8 7 11 6 8 3 4 4 5 9 11 12 16 18 20 22 26 28 27 28 26 23 21 20 20 20 20 18 16 13 11 9 8 9 11 13 14 15
4 4 9 11 9 5 6 10 4 7 6 4 7 3 8 14 16 9 17 21 23 28 30 30 27 26 26 25 22 19 18 18 17 16 14 13 13 12 10 8 6 7 9 13
5 3 2 5 5 9 3 6 5 3 7 5 4 4 12 9 14 7 13 16 20 23 25 26 26 25 26 25 24 21 19 18 16 16 15 13 12 11 11 11 11 10 8 8
4 2 4 3 2 4 3 4 6 7 4 7 5 7 11 14 23 17 9 26 25 25 25 24 24 23 23 22 20 19 16 16 16 15 15 15 14 13 13 12 11 11 12 13
1 4 1 2 2 2 2 2 2 2 1 2 4 6 12 24 17 8 5 26 24 21 23 22 21 21 22 20 20 19 16 15 15 16 15 16 16 15 14 14 14 13 12 13
8 6 3 2 3 5 3 3 7 1 4 5 6 10 16 21 6 4 28 29 25 24 23 23 22 22 22 21 19 18 18 19 18 18 19 20 19 18 17 16 16 15 14 14
4 4 3 2 2 4 4 10 1 2 4 14 14 17 16 4 11 30 30 28 26 28 25 24 24 23 21 21 20 20 22 22 21 22 23 21 19 20 19 18 17 17 16 16
2 2 1 2 3 3 6 2 2 1 10 18 17 19 19 23 30 29 30 30 31 29 28 26 24 23 21 19 22 24 21 22 24 24 25 24 23 22 21 20 20 19 19 20
1 1 1 3 2 1 5 6 8 8 21 22 18 18 27 29 28 28 31 32 31 30 29 27 27 27 23 25 25 23 26 28 28 27 26 25 24 23 21 21 20 19 19 20
4 9 0 3 2 7 6 10 4 17 28 23 19 29 25 26 27 30 32 31 31 29 28 28 27 27 32 32 29 30 29 28 28 28 26 24 24 23 21 22 22 22 21 20
2 8 4 4 4 9 3 10 13 29 24 26 27 25 25 27 30 30 30 30 29 30 29 26 29 35 32 31 30 27 27 27 26 26 25 24 23 23 23 22 22 23 22 19
6 1 1 4 6 7 17 24 27 21 31 27 29 29 28 26 27 27 28 28 30 28 28 34 31 32 32 31 30 28 27 25 26 26 27 27 27 27 25 24 26 23 21 20
Wind_Direction
201 155 219 202 206 192 143 215 254 259 215 232 235 245 258 264 281 271 273 274 270 265 266 252 245 241 231 229 227 225 221 219 216 213 213 215 217 218 217 216 215 215 211 207
99 236 238 197 215 232 259 271 273 287 258 180 273 264 259 258 240 260 267 272 274 279 279 265 245 237 230 230 227 225 224 222 221 220 221 221 221 221 223 220 216 217 214 209
194 228 51 184 203 209 235 218 244 246 302 247 286 285 253 276 240 266 272 279 283 285 289 270 248 235 226 225 227 226 224 223 226 224 222 220 220 222 221 219 218 217 215 211
237 247 249 199 245 184 254 204 237 254 238 261 143 285 313 265 282 15 6 9 24 13 335 289 263 234 224 223 224 225 224 223 228 227 224 223 222 221 226 227 224 218 218 215
247 268 208 218 232 175 247 195 202 208 205 331 212 287 269 272 11 360 346 4 21 34 39 33 344 246 224 222 224 225 224 224 228 228 229 228 227 230 235 233 228 225 223 221
245 244 253 216 199 182 144 111 45 48 93 258 204 168 314 7 339 337 338 357 20 29 38 48 58 59 225 220 222 225 225 226 229 232 234 235 234 236 236 235 234 231 229 227
326 238 247 181 221 253 140 100 293 302 189 234 212 169 84 52 13 358 6 24 23 31 39 40 42 54 80 146 233 239 237 236 236 237 240 240 240 241 242 243 242 239 235 232
278 322 191 359 211 188 203 170 186 218 202 249 86 216 137 74 31 25 26 28 26 26 31 40 42 44 51 62 184 208 236 257 251 249 248 247 246 245 244 246 246 246 247 245
339 271 330 225 232 156 183 184 234 283 201 19 208 67 195 48 26 22 19 20 20 20 24 30 35 41 44 50 53 58 223 224 231 251 261 253 251 248 249 251 252 249 249 249
344 291 260 325 3 337 187 179 153 221 220 234 245 180 148 9 10 15 16 15 13 16 22 25 27 27 32 38 44 56 74 159 232 229 231 240 250 253 256 255 252 250 249 249
1 226 280 313 197 229 300 250 227 218 203 249 255 207 37 30 18 16 20 17 15 16 20 22 23 24 24 26 29 33 38 41 71 188 226 233 236 241 247 250 255 253 250 253
4 291 284 227 279 310 66 22 6 282 267 251 261 199 36 40 37 27 24 18 17 18 20 24 23 22 23 23 21 19 18 15 17 20 16 26 227 221 221 228 233 239 246 253
319 296 323 308 128 47 45 53 5 305 281 273 279 108 24 26 35 27 22 17 16 15 16 21 22 23 24 22 21 19 15 12 6 358 341 318 307 310 301 280 259 239 235 237
196 238 216 257 302 336 326 23 358 266 268 309 162 135 6 359 6 16 14 15 17 16 15 14 13 14 18 21 19 15 12 9 6 3 1 350 337 318 307 302 298 289 273 250
75 254 284 288 300 337 48 19 25 44 351 223 93 87 360 346 339 10 8 5 8 8 8 8 6 4 3 9 14 12 8 4 0 356 356 354 349 338 323 301 286 277 267 258
6 286 317 294 283 174 81 27 30 32 3 68 130 112 20 348 330 16 15 4 357 357 356 356 360 360 359 356 360 6 3 357 355 350 352 342 332 325 322 317 302 282 269 256
277 227 92 264 143 125 105 9 46 82 33 337 31 19 353 347 343 3 26 10 2 351 344 349 350 352 352 350 348 355 356 352 348 339 340 337 331 325 317 305 291 283 279 272
250 323 228 264 327 234 88 68 73 99 47 20 1 351 337 314 303 296 12 1 351 347 340 342 344 343 345 343 339 344 351 349 347 341 343 341 334 329 319 307 295 282 271 263
206 245 341 99 72 26 298 20 4 47 203 345 312 323 337 338 326 150 327 342 340 334 333 334 337 334 334 335 335 338 344 342 340 339 341 341 337 334 329 321 311 301 287 272
26 17 111 37 147 216 223 328 323 129 279 5 321 318 341 354 12 261 320 331 331 333 336 332 331 329 326 329 332 334 338 337 337 335 332 328 322 321 320 318 317 314 310 299
346 3 74 9 117 293 252 319 74 90 274 331 327 317 316 310 292 307 319 323 328 331 332 331 326 328 329 329 327 325 326 326 321 317 315 314 313 311 311 308 304 301 301 300
102 64 346 49 69 323 355 359 179 273 344 332 329 319 316 314 316 318 322 326 328 329 330 331 329 327 327 328 323 320 316 312 309 307 305 305 305 305 304 301 297 294 292 288
351 179 261 166 237 297 318 135 115 15 354 344 328 331 322 318 320 322 323 325 325 326 327 328 326 323 322 321 323 313 309 308 306 305 304 303 301 300 301 301 298 295 293 290
7 18 329 7 288 299 273 197 237 341 338 331 326 321 320 318 320 320 320 321 323 324 324 323 319 315 316 317 311 309 311 310 308 307 304 302 299 300 295 288 290 289 287 287
310 335 336 276 313 340 88 239 289 316 323 321 322 324 322 322 316 319 318 319 321 320 323 318 311 312 311 312 312 313 312 311 308 305 304 302 301 299 296 291 289 288 284 282
2 261 67 262 314 290 292 309 320 321 320 324 324 324 321 319 318 320 319 320 317 323 310 308 311 311 312 313 313 313 311 309 306 302 302 301 300 299 297 295 293 286 283 280
Height
1478 1484 1482 1476 1474 1470 1470 1475 1475 1469 1462 1465 1464 1458 1450 1447 1447 1444 1441 1438 1436 1436 1437 1441 1443 1446 1450 1454 1458 1461 1465 1470 1474 1476 1479 1483 1485 1488 1491 1494 1496 1498 1501 1504
1481 1481 1467 1469 1472 1473 1473 1477 1475 1466 1458 1464 1459 1455 1448 1444 1440 1437 1434 1428 1427 1428 1430 1433 1436 1439 1442 1447 1451 1456 1461 1465 1469 1473 1476 1480 1483 1486 1489 1492 1494 1496 1499 1502
1477 1466 1460 1466 1469 1472 1470 1474 1472 1468 1459 1458 1458 1453 1445 1435 1434 1430 1426 1426 1426 1426 1424 1425 1428 1431 1436 1440 1445 1451 1456 1462 1466 1470 1473 1477 1480 1483 1485 1487 1490 1493 1496 1499
1470 1459 1459 1464 1465 1467 1469 1461 1460 1463 1465 1474 1458 1470 1450 1435 1432 1445 1444 1435 1432 1428 1426 1425 1426 1428 1433 1438 1444 1450 1455 1460 1463 1467 1469 1472 1475 1477 1480 1485 1488 1491 1493 1496
1463 1455 1457 1462 1456 1457 1456 1452 1456 1455 1461 1463 1460 1470 1453 1437 1449 1462 1461 1451 1441 1435 1430 1429 1431 1432 1435 1440 1445 1450 1454 1458 1462 1465 1467 1470 1473 1477 1480 1483 1485 1487 1490 1492
1457 1452 1453 1451 1448 1450 1450 1453 1460 1466 1469 1474 1455 1459 1459 1483 1487 1479 1469 1460 1451 1444 1437 1434 1434 1437 1441 1445 1448 1451 1455 1458 1461 1464 1466 1469 1472 1475 1477 1479 1481 1484 1486 1488
1456 1449 1443 1444 1451 1449 1450 1459 1476 1473 1479 1463 1450 1455 1477 1489 1491 1485 1475 1466 1460 1453 1445 1441 1440 1441 1443 1447 1452 1454 1456 1457 1460 1462 1464 1466 1469 1472 1474 1476 1479 1481 1482 1483
1467 1462 1444 1442 1444 1449 1454 1456 1467 1462 1467 1454 1454 1451 1475 1492 1491 1487 1479 1474 1467 1459 1456 1451 1450 1449 1448 1449 1450 1451 1455 1457 1459 1460 1462 1464 1466 1468 1470 1472 1475 1477 1479 1481
1473 1458 1444 1443 1441 1441 1449 1455 1442 1449 1450 1459 1448 1483 1489 1489 1487 1484 1481 1476 1473 1469 1465 1461 1458 1454 1453 1451 1451 1452 1452 1452 1454 1458 1458 1460 1462 1464 1466 1468 1470 1472 1474 1477
1479 1473 1448 1444 1441 1440 1442 1440 1447 1450 1450 1449 1438 1445 1447 1487 1491 1490 1487 1485 1482 1477 1471 1467 1464 1461 1458 1456 1454 1452 1450 1450 1452 1452 1453 1456 1459 1460 1461 1463 1465 1467 1470 1472
1484 1475 1450 1445 1446 1446 1447 1443 1440 1439 1438 1426 1423 1447 1494 1500 1502 1499 1498 1495 1490 1484 1479 1474 1469 1465 1462 1459 1455 1453 1451 1451 1451 1451 1451 1452 1453 1454 1455 1458 1461 1463 1465 1466
1486 1484 1467 1451 1445 1445 1459 1462 1462 1445 1436 1433 1420 1448 1504 1504 1505 1503 1502 1500 1495 1491 1486 1481 1475 1470 1464 1461 1457 1456 1455 1455 1453 1451 1450 1449 1450 1450 1450 1452 1454 1455 1458 1460
1486 1483 1485 1448 1442 1451 1461 1478 1482 1473 1461 1442 1431 1469 1509 1509 1506 1506 1504 1502 1499 1495 1490 1485 1480 1475 1469 1465 1462 1461 1460 1458 1455 1452 1450 1450 1449 1449 1449 1450 1451 1451 1452 1453
1485 1486 1486 1480 1471 1472 1475 1485 1488 1477 1471 1469 1484 1504 1513 1512 1509 1507 1506 1505 1502 1499 1494 1489 1484 1480 1474 1468 1465 1463 1462 1460 1458 1454 1450 1449 1449 1450 1448 1449 1450 1451 1451 1451
1487 1494 1486 1481 1478 1480 1501 1500 1499 1495 1505 1485 1502 1513 1518 1515 1513 1510 1507 1505 1501 1498 1494 1490 1486 1482 1478 1471 1465 1464 1463 1461 1459 1456 1451 1451 1451 1450 1448 1447 1446 1448 1448 1449
1490 1502 1487 1486 1475 1476 1508 1508 1502 1508 1511 1506 1512 1515 1518 1516 1513 1514 1508 1504 1500 1497 1493 1489 1485 1482 1481 1477 1471 1464 1462 1463 1461 1460 1454 1454 1453 1451 1449 1447 1446 1445 1445 1445
1494 1492 1506 1503 1482 1487 1497 1519 1515 1519 1522 1519 1514 1522 1521 1519 1518 1518 1508 1509 1507 1503 1499 1493 1488 1483 1480 1477 1474 1465 1461 1461 1460 1462 1457 1454 1452 1449 1448 1447 1445 1443 1443 1445
1486 1487 1482 1488 1482 1480 1526 1523 1522 1524 1527 1527 1526 1526 1525 1522 1518 1512 1508 1507 1504 1501 1500 1493 1488 1483 1481 1479 1476 1469 1461 1461 1460 1460 1456 1453 1451 1448 1447 1445 1444 1442 1440 1441
1485 1485 1495 1509 1523 1525 1527 1527 1528 1529 1529 1530 1528 1527 1524 1518 1508 1506 1507 1506 1505 1505 1500 1491 1486 1483 1481 1479 1474 1469 1461 1460 1458 1457 1454 1451 1449 1446 1445 1444 1442 1440 1437 1437
1486 1487 1492 1508 1509 1515 1532 1527 1527 1528 1532 1528 1526 1523 1519 1515 1514 1510 1506 1505 1502 1498 1492 1487 1482 1479 1477 1474 1469 1463 1458 1457 1454 1451 1448 1447 1449 1445 1443 1442 1439 1437 1436 1435
1503 1511 1516 1523 1537 1536 1529 1526 1526 1528 1532 1527 1525 1523 1520 1520 1518 1509 1505 1501 1498 1492 1486 1483 1479 1474 1470 1467 1463 1458 1455 1453 1451 1449 1448 1447 1445 1443 1439 1436 1435 1434 1432 1431
1533 1541 1534 1538 1541 1524 1527 1526 1526 1531 1528 1525 1521 1519 1516 1513 1508 1503 1497 1492 1488 1483 1480 1478 1474 1470 1467 1464 1460 1456 1454 1452 1449 1446 1444 1441 1438 1436 1434 1432 1430 1429 1427 1427
1525 1535 1533 1533 1528 1527 1526 1525 1526 1526 1525 1521 1517 1515 1512 1506 1501 1497 1491 1487 1483 1479 1475 1472 1468 1464 1462 1460 1457 1453 1450 1447 1443 1440 1437 1434 1432 1430 1428 1426 1424 1422 1421 1421
1533 1532 1532 1532 1529 1526 1525 1525 1524 1523 1521 1518 1515 1511 1506 1501 1496 1491 1487 1482 1478 1475 1471 1467 1463 1459 1456 1454 1451 1447 1443 1439 1435 1431 1429 1427 1424 1423 1421 1420 1418 1417 1416 1415
1541 1536 1540 1533 1529 1525 1524 1525 1525 1522 1519 1515 1510 1506 1501 1497 1492 1487 1482 1478 1474 1470 1466 1462 1458 1454 1450 1447 1443 1440 1436 1432 1428 1425 1422 1419 1417 1416 1414 1412 1412 1410 1410 1410
1543 1543 1546 1540 1532 1532 1526 1524 1522 1517 1513 1509 1504 1499 1497 1493 1487 1482 1478 1474 1470 1465 1461 1457 1452 1448 1443 1439 1435 1433 1430 1426 1422 1418 1415 1413 1410 1408 1406 1405 1403 1403 1403 1403